Time,TemperatureF,DewpointF,PressureIn,WindDirection,WindDirectionDegrees,WindSpeedMPH,WindSpeedGustMPH,Humidity,HourlyPrecipIn,Conditions,Clouds,dailyrainin,SoftwareType,DateUTC
2013-10-13 00:04:00,66.9,61.9,30.14,SE,135,0.0,0.0,84,0.00,,,0.00,WUHU21623XXSP,2013-10-13 05:04:00,
2013-10-13 00:09:00,66.9,61.6,30.15,SE,135,0.0,0.0,83,0.00,,,0.00,WUHU21623XXSP,2013-10-13 05:09:00,
2013-10-13 00:14:00,66.9,61.6,30.15,ESE,112,0.0,0.0,83,0.00,,,0.00,WUHU21623XXSP,2013-10-13 05:14:00,
2013-10-13 00:19:00,67.1,61.8,30.15,ESE,112,0.0,0.0,83,0.00,,,0.00,WUHU21623XXSP,2013-10-13 05:19:00,
2013-10-13 00:24:00,67.3,62.0,30.15,ESE,112,0.0,0.0,83,0.00,,,0.00,WUHU21623XXSP,2013-10-13 05:24:00,
2013-10-13 00:29:00,67.1,61.8,30.15,ESE,112,0.0,0.0,83,0.00,,,0.00,WUHU21623XXSP,2013-10-13 05:29:00,
2013-10-13 00:34:00,67.1,61.8,30.15,ESE,112,0.0,0.0,83,0.00,,,0.00,WUHU21623XXSP,2013-10-13 05:34:00,
2013-10-13 00:39:00,67.1,61.8,30.15,ESE,112,0.0,0.0,83,0.00,,,0.00,WUHU21623XXSP,2013-10-13 05:39:00,
2013-10-13 00:44:00,67.1,61.8,30.15,ESE,112,0.0,0.0,83,0.00,,,0.00,WUHU21623XXSP,2013-10-13 05:44:00,
2013-10-13 00:49:00,67.1,61.8,30.15,ESE,112,0.0,0.0,83,0.00,,,0.00,WUHU21623XXSP,2013-10-13 05:49:00,
2013-10-13 00:54:00,66.9,61.6,30.15,SE,135,0.0,0.0,83,0.00,,,0.00,WUHU21623XXSP,2013-10-13 05:54:00,
2013-10-13 00:59:00,66.9,61.6,30.15,SE,135,0.0,0.0,83,0.00,,,0.00,WUHU21623XXSP,2013-10-13 05:59:00,
2013-10-13 01:04:00,66.9,61.6,30.15,SE,135,0.0,0.0,83,0.00,,,0.00,WUHU21623XXSP,2013-10-13 06:04:00,
2013-10-13 01:10:00,66.9,61.6,30.15,SE,135,0.0,0.0,83,0.00,,,0.00,WUHU21623XXSP,2013-10-13 06:10:00,
2013-10-13 01:15:00,66.7,61.7,30.15,SE,135,0.0,0.0,84,0.00,,,0.00,WUHU21623XXSP,2013-10-13 06:15:00,
2013-10-13 01:20:00,66.7,61.7,30.15,SE,135,0.0,0.0,84,0.00,,,0.00,WUHU21623XXSP,2013-10-13 06:20:00,
2013-10-13 01:25:00,66.7,61.7,30.15,SE,135,0.0,0.0,84,0.00,,,0.00,WUHU21623XXSP,2013-10-13 06:25:00,
2013-10-13 01:30:00,66.6,61.6,30.15,ESE,112,0.0,0.0,84,0.00,,,0.00,WUHU21623XXSP,2013-10-13 06:30:00,
2013-10-13 01:35:00,66.4,61.6,30.15,ESE,112,0.0,0.0,84,0.00,,,0.00,WUHU21623XXSP,2013-10-13 06:35:00,
2013-10-13 01:40:00,66.4,61.4,30.15,ESE,112,0.0,0.0,84,0.00,,,0.00,WUHU21623XXSP,2013-10-13 06:40:00,
2013-10-13 01:45:00,66.2,61.2,30.16,ESE,112,0.0,0.0,84,0.00,,,0.00,WUHU21623XXSP,2013-10-13 06:45:00,
2013-10-13 01:50:00,66.0,61.0,30.15,ESE,112,0.0,0.0,84,0.00,,,0.00,WUHU21623XXSP,2013-10-13 06:50:00,
2013-10-13 01:55:00,66.0,61.0,30.16,ESE,112,0.0,0.0,84,0.00,,,0.00,WUHU21623XXSP,2013-10-13 06:55:00,
2013-10-13 02:00:00,66.0,61.0,30.16,ESE,112,0.0,0.0,84,0.00,,,0.00,WUHU21623XXSP,2013-10-13 07:00:00,
2013-10-13 02:05:00,66.0,61.0,30.16,ESE,112,0.0,0.0,84,0.00,,,0.00,WUHU21623XXSP,2013-10-13 07:05:00,
2013-10-13 02:10:00,66.0,61.0,30.16,ESE,112,0.0,0.0,84,0.00,,,0.00,WUHU21623XXSP,2013-10-13 07:10:00,
2013-10-13 02:15:00,65.8,60.8,30.16,SE,135,0.0,0.0,84,0.00,,,0.00,WUHU21623XXSP,2013-10-13 07:15:00,
2013-10-13 02:20:00,65.8,60.8,30.16,SE,135,0.0,0.0,84,0.00,,,0.00,WUHU21623XXSP,2013-10-13 07:20:00,
2013-10-13 02:25:00,65.8,60.8,30.16,SE,135,0.0,0.0,84,0.00,,,0.00,WUHU21623XXSP,2013-10-13 07:25:00,
2013-10-13 02:30:00,65.8,60.8,30.17,SE,135,0.0,0.0,84,0.00,,,0.00,WUHU21623XXSP,2013-10-13 07:30:00,
2013-10-13 02:35:00,66.0,61.3,30.17,SE,135,0.0,0.0,85,0.00,,,0.00,WUHU21623XXSP,2013-10-13 07:35:00,
2013-10-13 02:40:00,66.0,61.0,30.17,SE,135,0.0,0.0,85,0.00,,,0.00,WUHU21623XXSP,2013-10-13 07:40:00,
2013-10-13 02:45:00,66.0,61.3,30.17,SE,135,0.0,0.0,85,0.00,,,0.00,WUHU21623XXSP,2013-10-13 07:45:00,
2013-10-13 02:50:00,65.8,61.2,30.16,SE,135,0.0,0.0,85,0.00,,,0.00,WUHU21623XXSP,2013-10-13 07:50:00,
2013-10-13 02:55:00,65.7,61.0,30.16,SE,135,0.0,0.0,85,0.00,,,0.00,WUHU21623XXSP,2013-10-13 07:55:00,
2013-10-13 03:00:00,65.5,61.0,30.17,SE,135,0.0,0.0,85,0.00,,,0.00,WUHU21623XXSP,2013-10-13 08:00:00,
2013-10-13 03:05:00,65.5,60.8,30.16,SE,135,0.0,0.0,85,0.00,,,0.00,WUHU21623XXSP,2013-10-13 08:05:00,
2013-10-13 03:10:00,65.3,60.7,30.17,SE,135,0.0,0.0,85,0.00,,,0.00,WUHU21623XXSP,2013-10-13 08:10:00,
2013-10-13 03:15:00,65.3,60.7,30.17,SE,135,0.0,0.0,85,0.00,,,0.00,WUHU21623XXSP,2013-10-13 08:15:00,
2013-10-13 03:20:00,65.3,60.7,30.17,SE,135,0.0,0.0,85,0.00,,,0.00,WUHU21623XXSP,2013-10-13 08:20:00,
2013-10-13 03:25:00,65.1,60.5,30.17,SE,135,0.0,0.0,85,0.00,,,0.00,WUHU21623XXSP,2013-10-13 08:25:00,
2013-10-13 03:30:00,65.1,60.5,30.17,SE,135,0.0,0.0,85,0.00,,,0.00,WUHU21623XXSP,2013-10-13 08:30:00,
2013-10-13 03:35:00,64.9,60.8,30.17,ESE,112,0.0,0.0,86,0.00,,,0.00,WUHU21623XXSP,2013-10-13 08:35:00,
2013-10-13 03:40:00,64.9,60.7,30.17,ESE,112,0.0,0.0,86,0.00,,,0.00,WUHU21623XXSP,2013-10-13 08:40:00,
2013-10-13 03:45:00,64.9,60.7,30.18,ESE,112,0.0,0.0,86,0.00,,,0.00,WUHU21623XXSP,2013-10-13 08:45:00,
2013-10-13 03:50:00,64.8,60.5,30.18,SE,135,0.0,0.0,86,0.00,,,0.00,WUHU21623XXSP,2013-10-13 08:50:00,
2013-10-13 03:55:00,64.8,60.5,30.18,SE,135,0.0,0.0,86,0.00,,,0.00,WUHU21623XXSP,2013-10-13 08:55:00,
2013-10-13 04:00:00,64.8,60.8,30.18,SE,135,0.0,0.0,87,0.00,,,0.00,WUHU21623XXSP,2013-10-13 09:00:00,
2013-10-13 04:05:00,64.6,60.7,30.18,SE,135,0.0,0.0,87,0.00,,,0.00,WUHU21623XXSP,2013-10-13 09:05:00,
2013-10-13 04:10:00,64.6,60.7,30.18,SE,135,0.0,0.0,87,0.00,,,0.00,WUHU21623XXSP,2013-10-13 09:10:00,
2013-10-13 04:16:00,64.6,60.7,30.19,SSE,157,0.0,0.0,87,0.00,,,0.00,WUHU21623XXSP,2013-10-13 09:16:00,
2013-10-13 04:21:00,64.6,60.7,30.19,ESE,112,0.0,0.0,87,0.00,,,0.00,WUHU21623XXSP,2013-10-13 09:21:00,
2013-10-13 04:26:00,64.6,60.7,30.18,SE,135,0.0,0.0,87,0.00,,,0.00,WUHU21623XXSP,2013-10-13 09:26:00,
2013-10-13 04:31:00,64.8,60.8,30.19,SE,135,0.0,0.0,87,0.00,,,0.00,WUHU21623XXSP,2013-10-13 09:31:00,
2013-10-13 04:36:00,64.8,60.8,30.19,ESE,112,0.0,0.0,87,0.00,,,0.00,WUHU21623XXSP,2013-10-13 09:36:00,
2013-10-13 04:41:00,64.8,60.8,30.19,SE,135,0.0,0.0,86,0.00,,,0.00,WUHU21623XXSP,2013-10-13 09:41:00,
2013-10-13 04:46:00,64.8,60.5,30.19,SSE,157,0.0,0.0,86,0.00,,,0.00,WUHU21623XXSP,2013-10-13 09:46:00,
2013-10-13 04:51:00,64.8,60.5,30.19,SE,135,0.0,0.0,86,0.00,,,0.00,WUHU21623XXSP,2013-10-13 09:51:00,
2013-10-13 04:56:00,64.8,60.5,30.20,SE,135,0.0,0.0,86,0.00,,,0.00,WUHU21623XXSP,2013-10-13 09:56:00,
2013-10-13 05:01:00,64.9,60.7,30.20,SE,135,0.0,0.0,86,0.00,,,0.00,WUHU21623XXSP,2013-10-13 10:01:00,
2013-10-13 05:06:00,64.9,60.3,30.20,SSE,157,0.0,0.0,85,0.00,,,0.00,WUHU21623XXSP,2013-10-13 10:06:00,
2013-10-13 05:11:00,64.9,60.3,30.20,SSE,157,0.0,0.0,85,0.00,,,0.00,WUHU21623XXSP,2013-10-13 10:11:00,
2013-10-13 05:16:00,64.9,60.3,30.20,SE,135,0.0,0.0,85,0.00,,,0.00,WUHU21623XXSP,2013-10-13 10:16:00,
2013-10-13 05:22:00,64.8,59.8,30.21,SE,135,0.0,0.0,84,0.00,,,0.00,WUHU21623XXSP,2013-10-13 10:22:00,
2013-10-13 05:27:00,64.8,59.8,30.21,SE,135,0.0,0.0,84,0.00,,,0.00,WUHU21623XXSP,2013-10-13 10:27:00,
2013-10-13 05:32:00,64.8,59.8,30.21,SE,135,1.1,2.2,84,0.00,,,0.00,WUHU21623XXSP,2013-10-13 10:32:00,
2013-10-13 05:37:00,64.6,59.6,30.21,SE,135,0.0,2.2,84,0.00,,,0.00,WUHU21623XXSP,2013-10-13 10:37:00,
2013-10-13 05:42:00,64.6,59.3,30.21,SE,135,0.0,0.0,83,0.00,,,0.00,WUHU21623XXSP,2013-10-13 10:42:00,
2013-10-13 05:47:00,64.4,59.1,30.21,SSE,157,0.0,0.0,83,0.00,,,0.00,WUHU21623XXSP,2013-10-13 10:47:00,
2013-10-13 05:52:00,64.2,58.9,30.21,SSE,157,0.0,0.0,83,0.00,,,0.00,WUHU21623XXSP,2013-10-13 10:52:00,
2013-10-13 05:57:00,64.2,58.9,30.21,SE,135,0.0,0.0,83,0.00,,,0.00,WUHU21623XXSP,2013-10-13 10:57:00,
2013-10-13 06:02:00,64.2,58.9,30.21,SE,135,0.0,0.0,83,0.00,,,0.00,WUHU21623XXSP,2013-10-13 11:02:00,
2013-10-13 06:13:00,64.2,58.9,30.21,SE,135,0.0,0.0,83,0.00,,,0.00,WUHU21623XXSP,2013-10-13 11:13:00,
2013-10-13 06:18:00,64.0,58.9,30.22,SE,135,0.0,0.0,83,0.00,,,0.00,WUHU21623XXSP,2013-10-13 11:18:00,
2013-10-13 06:23:00,64.0,58.8,30.22,SSE,157,0.0,0.0,83,0.00,,,0.00,WUHU21623XXSP,2013-10-13 11:23:00,
2013-10-13 06:28:00,64.0,58.8,30.22,SE,135,0.0,0.0,83,0.00,,,0.00,WUHU21623XXSP,2013-10-13 11:28:00,
2013-10-13 06:34:00,63.9,58.6,30.23,SE,135,0.0,0.0,83,0.00,,,0.00,WUHU21623XXSP,2013-10-13 11:34:00,
2013-10-13 06:39:00,63.7,58.1,30.23,SSE,157,0.0,0.0,82,0.00,,,0.00,WUHU21623XXSP,2013-10-13 11:39:00,
2013-10-13 06:44:00,63.5,57.9,30.23,ESE,112,0.0,0.0,82,0.00,,,0.00,WUHU21623XXSP,2013-10-13 11:44:00,
2013-10-13 06:49:00,63.5,57.9,30.22,SSE,157,0.0,0.0,82,0.00,,,0.00,WUHU21623XXSP,2013-10-13 11:49:00,
2013-10-13 06:54:00,63.1,57.5,30.23,SE,135,0.0,1.6,82,0.00,,,0.00,WUHU21623XXSP,2013-10-13 11:54:00,
2013-10-13 06:59:00,63.0,57.3,30.23,SE,135,0.0,1.6,82,0.00,,,0.00,WUHU21623XXSP,2013-10-13 11:59:00,
2013-10-13 07:04:00,63.0,57.3,30.23,SSE,157,0.0,0.0,82,0.00,,,0.00,WUHU21623XXSP,2013-10-13 12:04:00,
2013-10-13 07:09:00,63.0,57.3,30.24,SE,135,0.0,0.0,82,0.00,,,0.00,WUHU21623XXSP,2013-10-13 12:09:00,
2013-10-13 07:14:00,63.0,57.3,30.24,ESE,112,0.0,0.0,82,0.00,,,0.00,WUHU21623XXSP,2013-10-13 12:14:00,
2013-10-13 07:19:00,63.0,57.3,30.24,SE,135,0.0,1.6,82,0.00,,,0.00,WUHU21623XXSP,2013-10-13 12:19:00,
2013-10-13 07:24:00,63.0,57.3,30.24,SSE,157,3.1,6.0,82,0.00,,,0.00,WUHU21623XXSP,2013-10-13 12:24:00,
2013-10-13 07:29:00,63.0,57.0,30.24,SSE,157,3.1,6.0,81,0.00,,,0.00,WUHU21623XXSP,2013-10-13 12:29:00,
2013-10-13 07:34:00,63.0,57.0,30.24,SE,135,0.0,6.0,81,0.00,,,0.00,WUHU21623XXSP,2013-10-13 12:34:00,
2013-10-13 07:40:00,62.8,56.8,30.25,SE,135,2.2,4.3,81,0.00,,,0.00,WUHU21623XXSP,2013-10-13 12:40:00,
2013-10-13 07:45:00,62.8,56.8,30.25,ESE,112,0.0,4.3,81,0.00,,,0.00,WUHU21623XXSP,2013-10-13 12:45:00,
2013-10-13 07:50:00,62.8,56.8,30.25,SE,135,0.0,0.7,81,0.00,,,0.00,WUHU21623XXSP,2013-10-13 12:50:00,
2013-10-13 07:55:00,62.6,56.3,30.25,SE,135,0.0,4.7,80,0.00,,,0.00,WUHU21623XXSP,2013-10-13 12:55:00,
2013-10-13 08:00:00,62.4,56.1,30.25,SE,135,2.5,4.9,80,0.00,,,0.00,WUHU21623XXSP,2013-10-13 13:00:00,
2013-10-13 08:05:00,62.6,56.3,30.26,SE,135,0.0,4.9,80,0.00,,,0.00,WUHU21623XXSP,2013-10-13 13:05:00,
2013-10-13 08:10:00,62.6,56.3,30.26,SE,135,3.7,7.2,80,0.00,,,0.00,WUHU21623XXSP,2013-10-13 13:10:00,
2013-10-13 08:15:00,62.6,55.9,30.26,SSE,157,0.0,7.2,79,0.00,,,0.00,WUHU21623XXSP,2013-10-13 13:15:00,
2013-10-13 08:20:00,62.8,56.1,30.26,SSE,157,1.7,4.7,79,0.00,,,0.00,WUHU21623XXSP,2013-10-13 13:20:00,
2013-10-13 08:25:00,62.8,55.8,30.26,SSE,157,0.0,4.5,78,0.00,,,0.00,WUHU21623XXSP,2013-10-13 13:25:00,
2013-10-13 08:30:00,62.8,55.8,30.26,SE,135,0.0,0.0,78,0.00,,,0.00,WUHU21623XXSP,2013-10-13 13:30:00,
2013-10-13 08:35:00,62.8,55.8,30.27,SE,135,1.0,2.0,78,0.00,,,0.00,WUHU21623XXSP,2013-10-13 13:35:00,
2013-10-13 08:40:00,63.1,55.9,30.27,SE,135,0.0,2.0,78,0.00,,,0.00,WUHU21623XXSP,2013-10-13 13:40:00,
2013-10-13 08:45:00,63.3,55.9,30.27,SE,135,0.0,0.0,77,0.00,,,0.00,WUHU21623XXSP,2013-10-13 13:45:00,
2013-10-13 08:50:00,64.0,56.7,30.27,SSE,157,0.0,0.0,77,0.00,,,0.00,WUHU21623XXSP,2013-10-13 13:50:00,
2013-10-13 08:55:00,64.2,56.5,30.28,ESE,112,0.0,0.4,76,0.00,,,0.00,WUHU21623XXSP,2013-10-13 13:55:00,
2013-10-13 09:00:00,64.6,56.5,30.28,SE,135,0.5,0.9,75,0.00,,,0.00,WUHU21623XXSP,2013-10-13 14:00:00,
2013-10-13 09:05:00,64.8,56.6,30.28,SSE,157,1.0,5.8,75,0.00,,,0.00,WUHU21623XXSP,2013-10-13 14:05:00,
2013-10-13 09:10:00,64.9,56.4,30.28,SE,135,1.5,5.8,74,0.00,,,0.00,WUHU21623XXSP,2013-10-13 14:10:00,
2013-10-13 09:15:00,64.8,56.3,30.28,SSE,157,0.0,2.9,74,0.00,,,0.00,WUHU21623XXSP,2013-10-13 14:15:00,
2013-10-13 09:20:00,64.8,56.3,30.28,SSE,157,0.0,5.8,74,0.00,,,0.00,WUHU21623XXSP,2013-10-13 14:20:00,
2013-10-13 09:25:00,64.8,56.3,30.28,SE,135,0.0,5.8,74,0.00,,,0.00,WUHU21623XXSP,2013-10-13 14:25:00,
2013-10-13 09:30:00,64.8,56.3,30.28,SE,135,0.0,0.0,74,0.00,,,0.00,WUHU21623XXSP,2013-10-13 14:30:00,
2013-10-13 09:35:00,64.9,56.1,30.29,ESE,112,2.0,4.0,73,0.00,,,0.00,WUHU21623XXSP,2013-10-13 14:35:00,
2013-10-13 09:40:00,65.1,56.2,30.29,SE,135,0.0,4.0,73,0.00,,,0.00,WUHU21623XXSP,2013-10-13 14:40:00,
2013-10-13 09:45:00,65.1,56.6,30.29,ESE,112,0.0,0.0,74,0.00,,,0.00,WUHU21623XXSP,2013-10-13 14:45:00,
2013-10-13 09:50:00,65.3,56.4,30.29,SE,135,0.0,5.8,73,0.00,,,0.00,WUHU21623XXSP,2013-10-13 14:50:00,
2013-10-13 09:55:00,65.7,56.8,30.29,South,180,2.3,5.8,73,0.00,,,0.00,WUHU21623XXSP,2013-10-13 14:55:00,
2013-10-13 10:00:00,65.8,56.5,30.29,SE,135,0.0,4.5,72,0.00,,,0.00,WUHU21623XXSP,2013-10-13 15:00:00,
2013-10-13 10:05:00,66.4,56.7,30.29,SE,135,1.8,5.8,71,0.00,,,0.00,WUHU21623XXSP,2013-10-13 15:05:00,
2013-10-13 10:10:00,66.6,56.9,30.29,SE,135,0.0,5.8,71,0.00,,,0.00,WUHU21623XXSP,2013-10-13 15:10:00,
2013-10-13 10:16:00,67.1,57.8,30.29,ESE,112,0.0,3.4,72,0.00,,,0.00,WUHU21623XXSP,2013-10-13 15:16:00,
2013-10-13 10:20:00,67.6,57.6,30.29,SSE,157,0.0,6.3,70,0.00,,,0.00,WUHU21623XXSP,2013-10-13 15:20:00,
2013-10-13 10:25:00,67.8,57.7,30.29,SSE,157,1.5,6.3,70,0.00,,,0.00,WUHU21623XXSP,2013-10-13 15:25:00,
2013-10-13 10:30:00,68.0,57.5,30.29,SE,135,0.2,4.0,69,0.00,,,0.00,WUHU21623XXSP,2013-10-13 15:30:00,
2013-10-13 10:35:00,68.2,57.2,30.29,SE,135,2.5,4.9,68,0.00,,,0.00,WUHU21623XXSP,2013-10-13 15:35:00,
2013-10-13 10:40:00,67.8,56.9,30.29,SE,135,1.1,4.9,68,0.00,,,0.00,WUHU21623XXSP,2013-10-13 15:40:00,
2013-10-13 10:45:00,68.2,57.7,30.29,ESE,112,0.0,6.9,69,0.00,,,0.00,WUHU21623XXSP,2013-10-13 15:45:00,
2013-10-13 10:50:00,68.5,58.0,30.29,SSE,157,1.1,6.9,69,0.00,,,0.00,WUHU21623XXSP,2013-10-13 15:50:00,
2013-10-13 10:55:00,68.7,57.7,30.29,ENE,67,2.4,4.7,68,0.00,,,0.00,WUHU21623XXSP,2013-10-13 15:55:00,
2013-10-13 11:00:00,68.7,57.7,30.30,SE,135,0.0,4.7,68,0.00,,,0.00,WUHU21623XXSP,2013-10-13 16:00:00,
2013-10-13 11:05:00,69.1,58.0,30.29,SSE,157,0.0,6.3,68,0.00,,,0.00,WUHU21623XXSP,2013-10-13 16:05:00,
2013-10-13 11:10:00,69.4,58.0,30.29,SE,135,0.0,6.3,67,0.00,,,0.00,WUHU21623XXSP,2013-10-13 16:10:00,
2013-10-13 11:15:00,69.4,58.0,30.29,SW,225,0.0,0.0,65,0.00,,,0.00,WUHU21623XXSP,2013-10-13 16:15:00,
2013-10-13 11:20:00,69.6,58.1,30.29,SE,135,0.0,3.8,67,0.00,,,0.00,WUHU21623XXSP,2013-10-13 16:20:00,
2013-10-13 11:27:00,70.2,58.6,30.29,SSE,157,0.0,5.8,67,0.00,,,0.00,WUHU21623XXSP,2013-10-13 16:27:00,
2013-10-13 11:32:00,70.5,59.0,30.30,South,180,1.7,6.0,67,0.00,,,0.00,WUHU21623XXSP,2013-10-13 16:32:00,
2013-10-13 11:37:00,70.5,58.6,30.29,SSE,157,0.0,6.0,66,0.00,,,0.00,WUHU21623XXSP,2013-10-13 16:37:00,
2013-10-13 11:42:00,70.7,58.7,30.29,SE,135,0.0,3.4,66,0.00,,,0.00,WUHU21623XXSP,2013-10-13 16:42:00,
2013-10-13 11:47:00,70.7,59.2,30.29,SSE,157,0.0,2.2,67,0.00,,,0.00,WUHU21623XXSP,2013-10-13 16:47:00,
2013-10-13 11:52:00,70.9,58.7,30.29,SSE,157,0.0,2.2,66,0.00,,,0.00,WUHU21623XXSP,2013-10-13 16:52:00,
2013-10-13 11:57:00,71.4,59.7,30.29,SSE,157,0.0,0.0,66,0.00,,,0.00,WUHU21623XXSP,2013-10-13 16:57:00,
2013-10-13 12:02:00,71.8,60.2,30.29,SE,135,0.0,0.0,67,0.00,,,0.00,WUHU21623XXSP,2013-10-13 17:02:00,
2013-10-13 12:07:00,72.1,59.7,30.29,SSE,157,2.3,4.5,65,0.00,,,0.00,WUHU21623XXSP,2013-10-13 17:07:00,
2013-10-13 12:12:00,72.5,59.9,30.28,SE,135,0.0,4.5,64,0.00,,,0.00,WUHU21623XXSP,2013-10-13 17:12:00,
2013-10-13 12:17:00,72.5,59.1,30.28,SSE,157,0.0,0.0,63,0.00,,,0.00,WUHU21623XXSP,2013-10-13 17:17:00,
2013-10-13 12:22:00,72.7,59.3,30.28,SE,135,0.4,0.7,63,0.00,,,0.00,WUHU21623XXSP,2013-10-13 17:22:00,
2013-10-13 12:27:00,73.0,59.2,30.28,SE,135,1.6,4.5,62,0.00,,,0.00,WUHU21623XXSP,2013-10-13 17:27:00,
2013-10-13 12:32:00,73.2,59.4,30.28,ESE,112,0.0,4.5,62,0.00,,,0.00,WUHU21623XXSP,2013-10-13 17:32:00,
2013-10-13 12:37:00,73.8,59.4,30.28,SE,135,0.0,0.0,61,0.00,,,0.00,WUHU21623XXSP,2013-10-13 17:37:00,
2013-10-13 12:42:00,74.1,59.8,30.28,ESE,112,0.0,7.6,61,0.00,,,0.00,WUHU21623XXSP,2013-10-13 17:42:00,
2013-10-13 12:47:00,74.5,59.7,30.28,SSE,157,0.1,7.6,60,0.00,,,0.00,WUHU21623XXSP,2013-10-13 17:47:00,
2013-10-13 12:52:00,74.5,59.7,30.28,SSE,157,0.0,4.9,60,0.00,,,0.00,WUHU21623XXSP,2013-10-13 17:52:00,
2013-10-13 12:57:00,74.8,60.1,30.28,SSE,157,0.0,4.9,60,0.00,,,0.00,WUHU21623XXSP,2013-10-13 17:57:00,
2013-10-13 13:02:00,75.4,59.1,30.28,SSW,202,0.0,3.6,57,0.00,,,0.00,WUHU21623XXSP,2013-10-13 18:02:00,
2013-10-13 13:07:00,75.7,59.9,30.28,SE,135,0.0,5.8,58,0.00,,,0.00,WUHU21623XXSP,2013-10-13 18:07:00,
2013-10-13 13:12:00,75.7,59.4,30.28,South,180,0.1,5.8,57,0.00,,,0.00,WUHU21623XXSP,2013-10-13 18:12:00,
2013-10-13 13:17:00,75.9,59.6,30.28,SSE,157,3.5,6.9,57,0.00,,,0.00,WUHU21623XXSP,2013-10-13 18:17:00,
2013-10-13 13:22:00,75.7,59.4,30.27,ESE,112,1.7,6.9,57,0.00,,,0.00,WUHU21623XXSP,2013-10-13 18:22:00,
2013-10-13 13:27:00,75.9,59.6,30.27,SE,135,1.7,5.1,57,0.00,,,0.00,WUHU21623XXSP,2013-10-13 18:27:00,
2013-10-13 13:32:00,75.9,59.6,30.27,SE,135,0.0,3.4,57,0.00,,,0.00,WUHU21623XXSP,2013-10-13 18:32:00,
2013-10-13 13:37:00,76.1,59.7,30.27,SE,135,1.4,2.7,57,0.00,,,0.00,WUHU21623XXSP,2013-10-13 18:37:00,
2013-10-13 13:42:00,76.3,59.9,30.27,SSE,157,0.0,5.8,57,0.00,,,0.00,WUHU21623XXSP,2013-10-13 18:42:00,
2013-10-13 13:47:00,76.8,59.4,30.27,SSW,202,0.0,5.8,55,0.00,,,0.00,WUHU21623XXSP,2013-10-13 18:47:00,
2013-10-13 13:52:00,76.6,59.5,30.26,ESE,112,0.9,1.8,56,0.00,,,0.00,WUHU21623XXSP,2013-10-13 18:52:00,
2013-10-13 13:57:00,76.3,59.4,30.26,SE,135,0.0,1.8,56,0.00,,,0.00,WUHU21623XXSP,2013-10-13 18:57:00,
2013-10-13 14:02:00,76.3,59.4,30.26,SSE,157,0.0,2.0,56,0.00,,,0.00,WUHU21623XXSP,2013-10-13 19:02:00,
2013-10-13 14:07:00,76.3,59.4,30.26,SE,135,0.0,2.0,56,0.00,,,0.00,WUHU21623XXSP,2013-10-13 19:07:00,
2013-10-13 14:12:00,76.3,59.4,30.27,SSE,157,0.0,0.0,56,0.00,,,0.00,WUHU21623XXSP,2013-10-13 19:12:00,
2013-10-13 14:17:00,76.8,59.4,30.26,SE,135,0.0,0.0,55,0.00,,,0.00,WUHU21623XXSP,2013-10-13 19:17:00,
2013-10-13 14:22:00,77.2,59.7,30.26,East,90,0.0,0.0,55,0.00,,,0.00,WUHU21623XXSP,2013-10-13 19:22:00,
2013-10-13 14:27:00,76.5,59.1,30.26,ESE,112,0.0,0.0,55,0.00,,,0.00,WUHU21623XXSP,2013-10-13 19:27:00,
2013-10-13 14:33:00,76.6,59.2,30.26,ESE,112,0.0,1.1,55,0.00,,,0.00,WUHU21623XXSP,2013-10-13 19:33:00,
2013-10-13 14:38:00,76.6,60.2,30.26,SE,135,0.0,1.1,57,0.00,,,0.00,WUHU21623XXSP,2013-10-13 19:38:00,
2013-10-13 14:44:00,76.8,58.4,30.25,SE,135,0.9,4.9,53,0.00,,,0.00,WUHU21623XXSP,2013-10-13 19:44:00,
2013-10-13 14:49:00,76.6,58.9,30.25,SSW,202,0.0,4.9,54,0.00,,,0.00,WUHU21623XXSP,2013-10-13 19:49:00,
2013-10-13 14:54:00,75.9,58.6,30.25,ESE,112,0.9,1.8,55,0.00,,,0.00,WUHU21623XXSP,2013-10-13 19:54:00,
2013-10-13 14:59:00,75.4,58.1,30.25,SE,135,0.0,4.5,55,0.00,,,0.00,WUHU21623XXSP,2013-10-13 19:59:00,
2013-10-13 15:04:00,75.4,58.6,30.25,ESE,112,0.0,4.5,56,0.00,,,0.00,WUHU21623XXSP,2013-10-13 20:04:00,
2013-10-13 15:09:00,75.4,58.6,30.25,SSE,157,0.0,0.0,56,0.00,,,0.00,WUHU21623XXSP,2013-10-13 20:09:00,
2013-10-13 15:16:00,76.1,59.1,30.25,SSE,157,0.0,0.0,55,0.00,,,0.00,WUHU21623XXSP,2013-10-13 20:16:00,
2013-10-13 15:21:00,76.3,58.4,30.25,SSE,157,0.0,0.0,53,0.00,,,0.00,WUHU21623XXSP,2013-10-13 20:21:00,
2013-10-13 15:26:00,76.6,57.7,30.25,SSE,157,0.0,0.0,52,0.00,,,0.00,WUHU21623XXSP,2013-10-13 20:26:00,
2013-10-13 15:31:00,76.6,57.2,30.25,SE,135,0.0,0.0,49,0.00,,,0.00,WUHU21623XXSP,2013-10-13 20:31:00,
2013-10-13 15:36:00,76.6,56.5,30.25,SSE,157,1.3,2.5,49,0.00,,,0.00,WUHU21623XXSP,2013-10-13 20:36:00,
2013-10-13 15:42:00,75.7,54.7,30.25,SE,135,0.9,2.5,48,0.00,,,0.00,WUHU21623XXSP,2013-10-13 20:42:00,
2013-10-13 15:48:00,75.7,55.3,30.24,SE,135,0.0,1.8,49,0.00,,,0.00,WUHU21623XXSP,2013-10-13 20:48:00,
2013-10-13 15:53:00,75.4,54.3,30.24,SSE,157,0.0,0.0,48,0.00,,,0.00,WUHU21623XXSP,2013-10-13 20:53:00,
2013-10-13 15:59:00,75.0,54.0,30.24,SSE,157,0.0,0.0,47,0.00,,,0.00,WUHU21623XXSP,2013-10-13 20:59:00,
2013-10-13 16:04:00,74.7,54.2,30.24,SE,135,0.0,0.0,49,0.00,,,0.00,WUHU21623XXSP,2013-10-13 21:04:00,
2013-10-13 16:09:00,74.5,54.1,30.24,South,180,0.0,0.0,49,0.00,,,0.00,WUHU21623XXSP,2013-10-13 21:09:00,
2013-10-13 16:14:00,74.3,53.3,30.24,SE,135,0.0,0.0,48,0.00,,,0.00,WUHU21623XXSP,2013-10-13 21:14:00,
2013-10-13 16:20:00,74.1,53.7,30.25,SE,135,0.0,0.0,49,0.00,,,0.00,WUHU21623XXSP,2013-10-13 21:20:00,
2013-10-13 16:25:00,73.9,53.5,30.24,SE,135,0.0,0.0,49,0.00,,,0.00,WUHU21623XXSP,2013-10-13 21:25:00,
2013-10-13 16:30:00,73.8,52.8,30.25,SE,135,0.6,3.4,48,0.00,,,0.00,WUHU21623XXSP,2013-10-13 21:30:00,
2013-10-13 16:35:00,73.6,52.6,30.25,SSE,157,2.3,4.5,47,0.00,,,0.00,WUHU21623XXSP,2013-10-13 21:35:00,
2013-10-13 16:40:00,73.2,52.6,30.25,SE,135,0.0,4.5,47,0.00,,,0.00,WUHU21623XXSP,2013-10-13 21:40:00,
2013-10-13 16:45:00,73.2,51.7,30.25,ESE,112,1.3,5.6,47,0.00,,,0.00,WUHU21623XXSP,2013-10-13 21:45:00,
2013-10-13 16:51:00,73.0,52.1,30.25,SE,135,0.0,5.6,48,0.00,,,0.00,WUHU21623XXSP,2013-10-13 21:51:00,
2013-10-13 16:56:00,72.7,51.2,30.24,SSE,157,0.0,2.5,47,0.00,,,0.00,WUHU21623XXSP,2013-10-13 21:56:00,
2013-10-13 17:01:00,72.7,51.8,30.24,SE,135,0.0,0.0,47,0.00,,,0.00,WUHU21623XXSP,2013-10-13 22:01:00,
2013-10-13 17:06:00,72.5,51.0,30.24,SE,135,0.0,0.0,47,0.00,,,0.00,WUHU21623XXSP,2013-10-13 22:06:00,
2013-10-13 17:11:00,72.3,50.8,30.24,SE,135,0.0,0.0,47,0.00,,,0.00,WUHU21623XXSP,2013-10-13 22:11:00,
2013-10-13 17:16:00,72.1,50.1,30.24,SE,135,0.0,0.7,46,0.00,,,0.00,WUHU21623XXSP,2013-10-13 22:16:00,
2013-10-13 17:21:00,72.0,49.9,30.24,SE,135,1.9,3.8,46,0.00,,,0.00,WUHU21623XXSP,2013-10-13 22:21:00,
2013-10-13 17:26:00,71.6,49.6,30.25,SE,135,0.0,3.8,46,0.00,,,0.00,WUHU21623XXSP,2013-10-13 22:26:00,
2013-10-13 17:31:00,71.4,49.4,30.25,SE,135,0.0,3.8,46,0.00,,,0.00,WUHU21623XXSP,2013-10-13 22:31:00,
2013-10-13 17:36:00,71.2,49.3,30.25,SE,135,0.0,0.0,46,0.00,,,0.00,WUHU21623XXSP,2013-10-13 22:36:00,
2013-10-13 17:41:00,70.9,49.0,30.25,SE,135,0.7,1.3,46,0.00,,,0.00,WUHU21623XXSP,2013-10-13 22:41:00,
2013-10-13 17:46:00,70.7,48.8,30.25,SE,135,0.0,1.3,46,0.00,,,0.00,WUHU21623XXSP,2013-10-13 22:46:00,
2013-10-13 17:51:00,70.3,47.9,30.25,SE,135,0.0,0.0,45,0.00,,,0.00,WUHU21623XXSP,2013-10-13 22:51:00,
2013-10-13 17:56:00,70.0,48.1,30.25,SE,135,0.0,0.0,46,0.00,,,0.00,WUHU21623XXSP,2013-10-13 22:56:00,
2013-10-13 18:01:00,69.6,47.8,30.25,SE,135,0.0,0.0,46,0.00,,,0.00,WUHU21623XXSP,2013-10-13 23:01:00,
2013-10-13 18:06:00,69.4,47.7,30.25,ESE,112,2.2,4.3,46,0.00,,,0.00,WUHU21623XXSP,2013-10-13 23:06:00,
2013-10-13 18:11:00,68.9,47.8,30.25,SE,135,0.0,4.3,47,0.00,,,0.00,WUHU21623XXSP,2013-10-13 23:11:00,
2013-10-13 18:16:00,68.5,48.0,30.25,SE,135,0.0,0.0,48,0.00,,,0.00,WUHU21623XXSP,2013-10-13 23:16:00,
2013-10-13 18:21:00,68.2,47.7,30.26,SE,135,0.0,0.0,48,0.00,,,0.00,WUHU21623XXSP,2013-10-13 23:21:00,
2013-10-13 18:26:00,67.6,47.8,30.26,SE,135,0.0,0.0,49,0.00,,,0.00,WUHU21623XXSP,2013-10-13 23:26:00,
2013-10-13 18:31:00,67.3,48.1,30.26,SE,135,0.0,0.0,50,0.00,,,0.00,WUHU21623XXSP,2013-10-13 23:31:00,
2013-10-13 18:36:00,66.9,47.8,30.26,SE,135,0.0,0.0,50,0.00,,,0.00,WUHU21623XXSP,2013-10-13 23:36:00,
2013-10-13 18:41:00,66.6,47.4,30.26,SE,135,0.0,0.0,50,0.00,,,0.00,WUHU21623XXSP,2013-10-13 23:41:00,
2013-10-13 18:48:00,66.2,47.6,30.26,SE,135,0.0,0.0,51,0.00,,,0.00,WUHU21623XXSP,2013-10-13 23:48:00,
2013-10-13 18:53:00,66.0,47.4,30.27,SE,135,0.0,0.0,51,0.00,,,0.00,WUHU21623XXSP,2013-10-13 23:53:00,
2013-10-13 18:58:00,65.5,47.4,30.27,SE,135,0.0,0.0,52,0.00,,,0.00,WUHU21623XXSP,2013-10-13 23:58:00,
2013-10-13 19:03:00,65.1,47.0,30.27,SSE,157,0.0,0.0,52,0.00,,,0.00,WUHU21623XXSP,2013-10-14 00:03:00,
2013-10-13 19:09:00,64.9,46.8,30.27,SE,135,0.0,0.0,52,0.00,,,0.00,WUHU21623XXSP,2013-10-14 00:09:00,
2013-10-13 19:14:00,64.8,46.7,30.27,SE,135,0.0,0.0,52,0.00,,,0.00,WUHU21623XXSP,2013-10-14 00:14:00,
2013-10-13 19:19:00,64.6,47.0,30.27,SE,135,0.0,0.0,53,0.00,,,0.00,WUHU21623XXSP,2013-10-14 00:19:00,
2013-10-13 19:24:00,64.2,46.6,30.27,SE,135,0.0,0.0,53,0.00,,,0.00,WUHU21623XXSP,2013-10-14 00:24:00,
2013-10-13 19:29:00,64.0,46.9,30.27,SE,135,0.0,0.0,54,0.00,,,0.00,WUHU21623XXSP,2013-10-14 00:29:00,
2013-10-13 19:34:00,63.9,46.8,30.27,SE,135,0.0,0.0,54,0.00,,,0.00,WUHU21623XXSP,2013-10-14 00:34:00,
2013-10-13 19:39:00,63.5,46.9,30.27,SE,135,0.0,0.0,55,0.00,,,0.00,WUHU21623XXSP,2013-10-14 00:39:00,
2013-10-13 19:44:00,63.3,46.8,30.27,SSE,157,0.0,0.0,55,0.00,,,0.00,WUHU21623XXSP,2013-10-14 00:44:00,
2013-10-13 19:49:00,63.3,46.8,30.27,SE,135,0.0,0.0,55,0.00,,,0.00,WUHU21623XXSP,2013-10-14 00:49:00,
2013-10-13 19:54:00,63.3,46.8,30.27,SSE,157,0.0,0.0,55,0.00,,,0.00,WUHU21623XXSP,2013-10-14 00:54:00,
2013-10-13 19:59:00,63.1,46.6,30.28,SSE,157,0.0,0.0,55,0.00,,,0.00,WUHU21623XXSP,2013-10-14 00:59:00,
2013-10-13 20:04:00,63.0,46.5,30.28,SSE,157,0.0,0.0,55,0.00,,,0.00,WUHU21623XXSP,2013-10-14 01:04:00,
2013-10-13 20:09:00,62.8,46.3,30.28,SE,135,0.0,0.0,55,0.00,,,0.00,WUHU21623XXSP,2013-10-14 01:09:00,
2013-10-13 20:14:00,62.6,46.3,30.28,SE,135,0.0,0.0,55,0.00,,,0.00,WUHU21623XXSP,2013-10-14 01:14:00,
2013-10-13 20:19:00,62.4,46.0,30.28,SE,135,0.0,0.0,55,0.00,,,0.00,WUHU21623XXSP,2013-10-14 01:19:00,
2013-10-13 20:24:00,62.2,46.5,30.29,SE,135,0.0,0.0,56,0.00,,,0.00,WUHU21623XXSP,2013-10-14 01:24:00,
2013-10-13 20:29:00,61.9,46.1,30.28,SE,135,0.0,0.0,56,0.00,,,0.00,WUHU21623XXSP,2013-10-14 01:29:00,
2013-10-13 20:34:00,61.9,46.5,30.29,SE,135,0.0,0.0,57,0.00,,,0.00,WUHU21623XXSP,2013-10-14 01:34:00,
2013-10-13 20:39:00,61.3,46.0,30.29,SE,135,0.0,0.0,57,0.00,,,0.00,WUHU21623XXSP,2013-10-14 01:39:00,
2013-10-13 20:44:00,61.2,45.8,30.29,SE,135,0.0,0.0,57,0.00,,,0.00,WUHU21623XXSP,2013-10-14 01:44:00,
2013-10-13 20:49:00,61.0,46.1,30.28,SE,135,0.0,0.0,58,0.00,,,0.00,WUHU21623XXSP,2013-10-14 01:49:00,
2013-10-13 20:54:00,60.6,45.8,30.29,SE,135,0.0,0.0,58,0.00,,,0.00,WUHU21623XXSP,2013-10-14 01:54:00,
2013-10-13 20:59:00,60.4,46.1,30.29,SE,135,0.0,0.0,59,0.00,,,0.00,WUHU21623XXSP,2013-10-14 01:59:00,
2013-10-13 21:04:00,60.3,46.1,30.29,SE,135,0.0,0.0,59,0.00,,,0.00,WUHU21623XXSP,2013-10-14 02:04:00,
2013-10-13 21:09:00,59.9,46.0,30.29,SE,135,0.0,0.0,60,0.00,,,0.00,WUHU21623XXSP,2013-10-14 02:09:00,
2013-10-13 21:14:00,59.5,45.7,30.29,SE,135,0.0,0.0,60,0.00,,,0.00,WUHU21623XXSP,2013-10-14 02:14:00,
2013-10-13 21:19:00,59.5,45.7,30.29,SE,135,0.0,0.0,60,0.00,,,0.00,WUHU21623XXSP,2013-10-14 02:19:00,
2013-10-13 21:24:00,59.5,46.1,30.29,SE,135,0.0,0.0,61,0.00,,,0.00,WUHU21623XXSP,2013-10-14 02:24:00,
2013-10-13 21:29:00,59.2,45.7,30.30,SE,135,0.0,0.0,61,0.00,,,0.00,WUHU21623XXSP,2013-10-14 02:29:00,
2013-10-13 21:34:00,58.8,45.8,30.30,SE,135,0.0,0.0,62,0.00,,,0.00,WUHU21623XXSP,2013-10-14 02:34:00,
2013-10-13 21:39:00,58.8,45.8,30.30,SE,135,0.0,0.0,62,0.00,,,0.00,WUHU21623XXSP,2013-10-14 02:39:00,
2013-10-13 21:44:00,58.6,46.0,30.30,SE,135,0.0,0.0,63,0.00,,,0.00,WUHU21623XXSP,2013-10-14 02:44:00,
2013-10-13 21:49:00,58.3,45.7,30.30,SE,135,0.0,0.0,63,0.00,,,0.00,WUHU21623XXSP,2013-10-14 02:49:00,
2013-10-13 21:54:00,57.9,45.8,30.30,SE,135,0.0,0.0,64,0.00,,,0.00,WUHU21623XXSP,2013-10-14 02:54:00,
2013-10-13 21:59:00,57.9,45.8,30.30,SE,135,0.0,0.0,64,0.00,,,0.00,WUHU21623XXSP,2013-10-14 02:59:00,
2013-10-13 22:04:00,57.9,46.2,30.30,SE,135,0.0,0.0,65,0.00,,,0.00,WUHU21623XXSP,2013-10-14 03:04:00,
2013-10-13 22:09:00,58.1,46.3,30.30,SE,135,0.0,0.0,65,0.00,,,0.00,WUHU21623XXSP,2013-10-14 03:09:00,
2013-10-13 22:14:00,58.1,46.3,30.30,SE,135,0.0,0.0,65,0.00,,,0.00,WUHU21623XXSP,2013-10-14 03:14:00,
2013-10-13 22:19:00,58.1,46.0,30.30,SE,135,0.0,0.0,64,0.00,,,0.00,WUHU21623XXSP,2013-10-14 03:19:00,
2013-10-13 22:24:00,58.1,46.0,30.30,SSE,157,0.0,0.0,64,0.00,,,0.00,WUHU21623XXSP,2013-10-14 03:24:00,
2013-10-13 22:29:00,58.1,46.0,30.29,SSE,157,0.0,0.0,64,0.00,,,0.00,WUHU21623XXSP,2013-10-14 03:29:00,
2013-10-13 22:34:00,58.1,46.3,30.29,SSE,157,0.0,0.0,65,0.00,,,0.00,WUHU21623XXSP,2013-10-14 03:34:00,
2013-10-13 22:39:00,57.9,45.8,30.30,SSE,157,0.0,0.0,64,0.00,,,0.00,WUHU21623XXSP,2013-10-14 03:39:00,
2013-10-13 22:44:00,57.9,45.8,30.29,SSE,157,0.0,0.0,64,0.00,,,0.00,WUHU21623XXSP,2013-10-14 03:44:00,
2013-10-13 22:49:00,57.7,45.6,30.29,SSE,157,0.0,0.0,64,0.00,,,0.00,WUHU21623XXSP,2013-10-14 03:49:00,
2013-10-13 22:54:00,57.4,45.7,30.29,SSE,157,0.0,0.0,65,0.00,,,0.00,WUHU21623XXSP,2013-10-14 03:54:00,
2013-10-13 22:59:00,57.4,45.7,30.29,SSE,157,0.0,0.0,65,0.00,,,0.00,WUHU21623XXSP,2013-10-14 03:59:00,
2013-10-13 23:01:00,57.4,45.7,30.29,SSE,157,0.0,0.0,65,0.00,,,0.00,WUHU21623XXSP,2013-10-14 04:01:00,
2013-10-13 23:06:00,57.4,45.7,30.29,SSE,157,0.0,0.0,66,0.00,,,0.00,WUHU21623XXSP,2013-10-14 04:06:00,
2013-10-13 23:11:00,57.0,45.7,30.29,SSE,157,0.0,0.0,66,0.00,,,0.00,WUHU21623XXSP,2013-10-14 04:11:00,
2013-10-13 23:16:00,57.0,45.7,30.29,SSE,157,0.0,0.0,66,0.00,,,0.00,WUHU21623XXSP,2013-10-14 04:16:00,
2013-10-13 23:21:00,56.5,45.6,30.29,SSE,157,0.0,0.0,67,0.00,,,0.00,WUHU21623XXSP,2013-10-14 04:21:00,
2013-10-13 23:26:00,56.3,45.4,30.29,SSE,157,0.0,0.0,67,0.00,,,0.00,WUHU21623XXSP,2013-10-14 04:26:00,
2013-10-13 23:31:00,56.1,45.3,30.28,SSE,157,0.0,0.0,67,0.00,,,0.00,WUHU21623XXSP,2013-10-14 04:31:00,
2013-10-13 23:36:00,55.9,45.5,30.28,SSE,157,0.0,0.0,68,0.00,,,0.00,WUHU21623XXSP,2013-10-14 04:36:00,
2013-10-13 23:41:00,55.9,45.5,30.28,SSE,157,0.0,0.0,68,0.00,,,0.00,WUHU21623XXSP,2013-10-14 04:41:00,
2013-10-13 23:46:00,55.8,45.4,30.28,SSE,157,0.0,0.0,68,0.00,,,0.00,WUHU21623XXSP,2013-10-14 04:46:00,
2013-10-13 23:51:00,55.4,45.6,30.28,SSE,157,0.0,0.0,69,0.00,,,0.00,WUHU21623XXSP,2013-10-14 04:51:00,
2013-10-13 23:56:00,55.2,45.3,30.28,SSE,157,0.0,0.0,69,0.00,,,0.00,WUHU21623XXSP,2013-10-14 04:56:00,